GW2742 Weather Reports


Display with metric or nautical units.
time (UTC)temp
F
wind
direction
speed
MPH
gust
MPH
rain 1hr
in
rain 24hr
in
rain mn
in
humidity
%
barometer
mb
20260509055527 59 269 1.0 4.0 0.00 0.03 0.03 62 1011.4
20260509055025 59 263 0.0 6.0 0.00 0.03 0.03 61 1011.3
20260509054548 60 245 2.0 6.0 0.00 0.03 0.03 59 1011.4
20260509054027 61 276 3.0 6.0 0.00 0.03 0.03 57 1011.3
20260509053530 62 226 2.0 5.0 0.00 0.03 0.03 50 1011.3
20260509053129 62 326 1.0 5.0 0.00 0.03 0.03 50 1011.4
20260509052526 63 348 2.0 10.0 0.00 0.03 0.03 45 1011.3
20260509052026 62 317 3.0 12.0 0.00 0.03 0.03 46 1011.3
20260509051545 61 27 6.0 12.0 0.00 0.03 0.03 48 1011.4
20260509051024 58 325 1.0 5.0 0.00 0.03 0.03 65 1011.5
20260509050526 58 277 2.0 5.0 0.00 0.03 0.03 64 1011.4
20260509050047 59 205 2.0 8.0 0.00 0.03 0.03 64 1011.2
20260509045526 59 236 3.0 8.0 0.00 0.03 0.03 62 1011.1
20260509045026 59 165 4.0 8.0 0.00 0.03 0.03 63 1011.0
20260509044539 59 163 4.0 8.0 0.00 0.03 0.03 62 1011.0
20260509044028 59 182 3.0 8.0 0.00 0.03 0.03 61 1011.1
20260509043526 59 175 2.0 6.0 0.00 0.03 0.03 62 1011.0
20260509043037 59 174 3.0 6.0 0.00 0.03 0.03 60 1011.0
20260509042529 60 203 2.0 7.0 0.00 0.03 0.03 59 1011.1
20260509042027 60 277 1.0 9.0 0.00 0.03 0.03 58 1011.1
20260509041536 60 159 4.0 9.0 0.00 0.03 0.03 57 1011.1
20260509041027 61 214 3.0 7.0 0.00 0.03 0.03 57 1011.1
20260509040526 61 0 0.0 7.0 0.00 0.03 0.03 55 1011.1
20260509040037 61 268 1.0 7.0 0.00 0.03 0.03 55 1011.1
20260509035527 61 257 4.0 7.0 0.00 0.04 0.03 55 1011.0
20260509035029 60 221 2.0 5.0 0.00 0.04 0.03 58 1010.9
20260509034536 60 0 1.0 7.0 0.00 0.04 0.03 59 1010.9
20260509034027 60 190 2.0 7.0 0.00 0.04 0.03 60 1011.0
20260509033526 60 263 3.0 7.0 0.00 0.04 0.03 60 1011.1
20260509033039 60 219 3.0 7.0 0.00 0.04 0.03 62 1011.2
20260509032527 60 217 3.0 7.0 0.00 0.04 0.03 60 1011.2
20260509032027 60 226 2.0 7.0 0.00 0.04 0.03 59 1011.1
20260509031538 60 218 3.0 7.0 0.00 0.04 0.03 60 1010.7
20260509031026 60 185 2.0 4.0 0.00 0.04 0.03 59 1010.6
20260509030525 60 194 2.0 6.0 0.00 0.04 0.03 59 1010.4
20260509030039 60 190 3.0 6.0 0.01 0.04 0.03 57 1010.3
20260509025526 60 200 2.0 4.0 0.01 0.04 0.03 57 1010.1
20260509025026 60 212 0.0 4.0 0.01 0.04 0.03 61 1010.1
20260509024542 60 0 0.0 8.0 0.01 0.04 0.03 58 1010.0
20260509024025 60 202 2.0 8.0 0.01 0.04 0.03 60 1010.0
20260509023526 60 176 4.0 14.0 0.01 0.04 0.03 59 1009.9
20260509023047 61 195 4.0 18.0 0.01 0.04 0.03 59 1010.0
20260509022530 61 198 8.0 18.0 0.01 0.04 0.03 58 1010.1
20260509022030 62 214 6.0 14.0 0.01 0.04 0.03 55 1010.1
20260509021539 64 239 1.0 5.0 0.01 0.04 0.03 62 1010.3
20260509021026 65 286 2.0 5.0 0.01 0.04 0.03 53 1010.1
20260509020526 66 275 0.0 2.0 0.00 0.03 0.02 50 1010.0
20260509020044 66 0 0.0 0.0 0.00 0.03 0.02 45 1009.8
20260509015530 66 0 0.0 0.0 0.00 0.04 0.02 45 1009.8
20260509015027 67 0 0.0 0.0 0.00 0.04 0.02 45 1009.7
20260509014539 67 0 0.0 0.0 0.00 0.04 0.02 44 1009.7
20260509014024 67 0 0.0 2.0 0.00 0.04 0.02 43 1009.6
20260509013528 67 0 0.0 2.0 0.00 0.04 0.02 43 1009.7
20260509013040 68 50 1.0 3.0 0.00 0.04 0.02 42 1009.7
20260509012524 68 30 0.0 3.0 0.00 0.04 0.02 41 1009.6
20260509012026 68 47 1.0 3.0 0.00 0.04 0.02 42 1009.7
20260509011540 68 44 1.0 3.0 0.00 0.04 0.02 42 1009.7
20260509011027 68 0 1.0 4.0 0.00 0.04 0.02 41 1009.6
20260509010525 68 0 1.0 4.0 0.00 0.04 0.02 39 1009.7
20260509010038 68 34 2.0 5.0 0.00 0.04 0.02 37 1009.5
20260509005526 69 20 2.0 5.0 0.00 0.09 0.02 38 1009.6
20260509005024 69 37 2.0 7.0 0.00 0.09 0.02 37 1009.6
20260509004541 69 46 3.0 7.0 0.00 0.09 0.02 38 1009.5
20260509004025 69 51 2.0 5.0 0.00 0.09 0.02 38 1009.6
20260509003525 69 27 2.0 4.0 0.00 0.09 0.02 36 1009.6
20260509003055 69 52 0.0 4.0 0.00 0.09 0.02 36 1009.7
20260509002525 69 0 0.0 5.0 0.00 0.09 0.02 35 1009.7
20260509002024 70 63 2.0 6.0 0.00 0.09 0.02 35 1009.7
20260509001542 70 43 3.0 9.0 0.00 0.09 0.02 34 1009.7
20260509001025 71 60 3.0 9.0 0.00 0.09 0.02 35 1009.7
20260509000528 71 86 5.0 9.0 0.00 0.09 0.02 35 1009.6
20260509000044 70 0 1.0 7.0 0.00 0.09 0.02 35 1009.7
20260508235525 71 39 2.0 7.0 0.00 0.09 0.02 37 1009.7
20260508235025 70 340 2.0 9.0 0.00 0.09 0.02 37 1009.7
20260508234541 70 23 5.0 10.0 0.00 0.09 0.02 36 1009.8
20260508234025 71 57 4.0 10.0 0.00 0.09 0.02 35 1009.8
20260508233525 71 82 6.0 10.0 0.00 0.09 0.02 34 1009.7
20260508233037 72 26 3.0 7.0 0.00 0.09 0.02 35 1009.8
20260508232524 72 31 2.0 7.0 0.00 0.09 0.02 33 1010.0
20260508232027 72 198 1.0 8.0 0.00 0.09 0.02 37 1010.0
20260508231548 72 210 2.0 8.0 0.00 0.09 0.02 35 1010.0
20260508231024 72 219 2.0 4.0 0.00 0.09 0.02 35 1010.0
20260508230523 72 217 1.0 5.0 0.00 0.09 0.02 35 1010.2
20260508230042 72 117 1.0 5.0 0.00 0.09 0.02 36 1010.3
20260508225528 72 204 1.0 5.0 0.00 0.09 0.02 34 1010.4
20260508225027 71 323 1.0 5.0 0.00 0.09 0.02 37 1010.4
20260508224544 71 26 0.0 6.0 0.00 0.09 0.02 35 1010.6
20260508224023 71 154 2.0 7.0 0.00 0.09 0.02 36 1010.6
20260508223526 70 190 2.0 9.0 0.00 0.09 0.02 37 1010.8
20260508223038 70 180 3.0 12.0 0.00 0.09 0.02 38 1010.8
20260508222523 70 137 4.0 12.0 0.00 0.09 0.02 36 1010.9
20260508222023 70 208 2.0 12.0 0.00 0.09 0.02 37 1011.0
20260508221537 70 330 4.0 7.0 0.00 0.09 0.02 38 1011.0
20260508221025 70 1 2.0 7.0 0.00 0.09 0.02 36 1011.1
20260508220526 70 108 2.0 7.0 0.00 0.09 0.02 38 1011.2
20260508220037 70 37 1.0 4.0 0.00 0.09 0.02 40 1011.2
20260508215525 69 212 1.0 7.0 0.00 0.09 0.02 37 1011.3
20260508215027 69 162 2.0 7.0 0.00 0.09 0.02 37 1011.4
20260508214542 69 103 1.0 9.0 0.00 0.09 0.02 38 1011.5
20260508214023 69 151 3.0 10.0 0.00 0.09 0.02 37 1011.5
20260508213523 69 131 5.0 10.0 0.00 0.09 0.02 39 1011.6
20260508213042 69 125 4.0 9.0 0.00 0.09 0.02 39 1011.6
20260508212526 70 115 3.0 9.0 0.00 0.09 0.02 37 1011.6
20260508212023 69 247 2.0 10.0 0.00 0.09 0.02 40 1011.8
20260508211543 69 219 4.0 10.0 0.00 0.09 0.02 39 1011.8
20260508211023 69 179 5.0 9.0 0.00 0.09 0.02 38 1011.9
20260508210524 69 109 1.0 6.0 0.00 0.09 0.02 40 1011.9
20260508210047 68 158 3.0 6.0 0.00 0.09 0.02 44 1012.0
20260508205523 68 0 2.0 9.0 0.00 0.09 0.02 38 1011.9
20260508205025 68 85 3.0 9.0 0.00 0.09 0.02 39 1012.1
20260508204545 68 160 5.0 9.0 0.00 0.09 0.02 40 1012.2
20260508204023 67 152 5.0 8.0 0.00 0.09 0.02 43 1012.2
20260508203524 67 66 2.0 10.0 0.00 0.09 0.02 41 1012.2
20260508203049 67 94 4.0 10.0 0.00 0.09 0.02 43 1012.3
20260508202524 67 97 4.0 9.0 0.00 0.09 0.02 43 1012.4
20260508202026 66 34 4.0 8.0 0.00 0.09 0.02 42 1012.4
20260508201537 66 71 3.0 10.0 0.00 0.09 0.02 42 1012.4
20260508201026 66 17 6.0 10.0 0.00 0.09 0.02 41 1012.4
20260508200525 66 0 3.0 7.0 0.00 0.09 0.02 41 1012.5
20260508200041 66 92 3.0 7.0 0.00 0.09 0.02 41 1012.5
20260508195526 66 102 2.0 11.0 0.00 0.09 0.02 40 1012.7
20260508195025 66 120 4.0 11.0 0.00 0.09 0.02 43 1012.8
20260508194537 66 112 4.0 11.0 0.00 0.09 0.02 47 1012.9
20260508194024 66 108 5.0 11.0 0.00 0.09 0.02 44 1013.0
20260508193522 66 25 2.0 8.0 0.00 0.09 0.02 45 1013.0
20260508193042 66 126 4.0 8.0 0.00 0.09 0.02 48 1013.1
20260508192525 65 0 2.0 9.0 0.00 0.09 0.02 44 1013.1
20260508192025 65 222 4.0 11.0 0.00 0.09 0.02 45 1013.3
20260508191539 65 188 1.0 11.0 0.00 0.09 0.02 47 1013.4
20260508191025 65 80 4.0 11.0 0.00 0.09 0.02 46 1013.5
20260508190524 65 98 3.0 9.0 0.00 0.09 0.02 47 1013.6
20260508190047 64 99 2.0 9.0 0.00 0.09 0.02 49 1013.7
20260508185529 64 116 2.0 8.0 0.00 0.09 0.02 48 1013.9
20260508185023 64 233 3.0 10.0 0.00 0.09 0.02 48 1013.9
20260508184548 64 113 5.0 10.0 0.00 0.09 0.02 51 1014.0
20260508184025 64 159 6.0 10.0 0.00 0.09 0.02 52 1014.1
20260508183524 63 68 5.0 10.0 0.00 0.09 0.02 52 1014.1
20260508183041 63 90 5.0 9.0 0.00 0.09 0.02 51 1014.3
20260508182525 62 68 3.0 13.0 0.00 0.09 0.02 51 1014.2
20260508182024 62 79 6.0 13.0 0.00 0.09 0.02 53 1014.4
20260508181538 63 94 5.0 8.0 0.00 0.09 0.02 54 1014.6
20260508181026 62 65 3.0 12.0 0.00 0.09 0.02 56 1014.6
20260508180525 62 160 4.0 12.0 0.00 0.09 0.02 58 1014.7
20260508180037 62 99 4.0 9.0 0.00 0.09 0.02 59 1014.8
20260508175525 62 60 4.0 9.0 0.00 0.09 0.02 59 1014.9
20260508175025 61 127 3.0 9.0 0.00 0.09 0.02 58 1014.9
20260508174556 61 106 5.0 9.0 0.00 0.09 0.02 60 1014.9
20260508174031 61 79 4.0 14.0 0.00 0.09 0.02 60 1015.0
20260508173525 60 139 5.0 14.0 0.00 0.09 0.02 60 1015.0
20260508173040 60 124 4.0 10.0 0.00 0.09 0.02 64 1015.0
20260508172525 60 179 3.0 10.0 0.00 0.09 0.02 60 1015.2
20260508172025 60 216 5.0 12.0 0.00 0.09 0.02 63 1015.4
20260508171536 60 133 4.0 12.0 0.00 0.09 0.02 64 1015.3
20260508171025 59 107 3.0 12.0 0.00 0.09 0.02 64 1015.3
20260508170524 59 151 5.0 12.0 0.00 0.09 0.02 65 1015.5
20260508170038 59 107 4.0 10.0 0.00 0.09 0.02 66 1015.5
20260508165524 59 104 4.0 10.0 0.00 0.09 0.02 65 1015.6
20260508165024 59 126 4.0 10.0 0.00 0.09 0.02 68 1015.4
20260508164544 58 94 5.0 11.0 0.00 0.09 0.02 68 1015.7
20260508164026 58 179 5.0 11.0 0.00 0.09 0.02 68 1015.7
20260508163527 57 167 5.0 11.0 0.00 0.09 0.02 71 1015.6
20260508163104 57 131 5.0 11.0 0.00 0.09 0.02 70 1015.7
20260508162526 57 107 5.0 10.0 0.00 0.09 0.02 72 1015.7
20260508162024 57 158 5.0 10.0 0.00 0.09 0.02 71 1015.8
20260508161540 56 141 4.0 10.0 0.00 0.09 0.02 74 1015.8
20260508161025 56 131 5.0 10.0 0.00 0.09 0.02 74 1016.0
20260508160528 56 81 5.0 10.0 0.00 0.09 0.02 75 1016.0
20260508160037 56 78 5.0 9.0 0.00 0.09 0.02 76 1016.0
20260508155525 56 146 4.0 10.0 0.00 0.09 0.02 79 1016.1
20260508155025 55 160 4.0 10.0 0.00 0.09 0.02 80 1016.2
20260508154537 55 158 5.0 10.0 0.00 0.09 0.02 79 1016.2
20260508154025 54 167 5.0 12.0 0.00 0.09 0.02 79 1016.3
20260508153525 54 150 6.0 12.0 0.00 0.09 0.02 80 1016.3
20260508153037 53 125 4.0 10.0 0.00 0.09 0.02 82 1016.4
20260508152524 52 127 5.0 10.0 0.00 0.09 0.02 83 1016.4
20260508152025 51 131 3.0 10.0 0.00 0.09 0.02 86 1016.4
20260508151541 51 117 4.0 10.0 0.00 0.09 0.02 86 1016.4
20260508151033 51 148 5.0 10.0 0.00 0.09 0.02 86 1016.4
20260508150525 50 148 4.0 9.0 0.00 0.09 0.02 88 1016.5
20260508150040 50 113 4.0 8.0 0.00 0.09 0.02 89 1016.5
20260508145524 49 244 1.0 4.0 0.00 0.09 0.02 90 1016.6
20260508145025 49 21 1.0 5.0 0.00 0.09 0.02 90 1016.7
20260508144540 49 0 0.0 5.0 0.00 0.09 0.02 91 1016.7
20260508144025 48 103 2.0 5.0 0.00 0.09 0.02 91 1016.6
20260508143526 48 105 2.0 5.0 0.00 0.09 0.02 91 1016.7
20260508143037 48 78 2.0 5.0 0.00 0.09 0.02 91 1016.8
20260508142524 48 66 2.0 5.0 0.00 0.09 0.02 92 1016.7
20260508142025 47 106 2.0 5.0 0.00 0.09 0.02 92 1016.7
20260508141537 47 45 2.0 5.0 0.00 0.09 0.02 93 1016.8
20260508141022 47 0 1.0 5.0 0.00 0.09 0.02 93 1016.9
20260508140525 46 14 1.0 5.0 0.00 0.09 0.02 94 1016.7
20260508140036 46 20 0.0 3.0 0.00 0.09 0.02 94 1016.7
20260508135525 46 20 1.0 3.0 0.00 0.11 0.02 94 1016.7
20260508135024 45 25 0.0 3.0 0.00 0.11 0.02 94 1016.6
20260508134544 45 0 0.0 2.0 0.00 0.11 0.02 94 1016.7
20260508134023 44 0 0.0 2.0 0.00 0.11 0.02 94 1016.6
20260508133527 44 0 0.0 2.0 0.00 0.11 0.02 94 1016.6
20260508133045 44 0 0.0 2.0 0.00 0.11 0.02 94 1016.6
20260508132523 43 0 0.0 2.0 0.00 0.11 0.02 94 1016.7
20260508132023 43 0 0.0 3.0 0.00 0.11 0.02 94 1016.7
20260508131545 43 0 0.0 3.0 0.01 0.11 0.02 94 1016.6
20260508131026 43 55 1.0 3.0 0.01 0.11 0.02 94 1016.4
20260508130527 43 0 0.0 1.0 0.01 0.11 0.02 94 1016.4
20260508130047 42 0 0.0 1.0 0.01 0.11 0.02 94 1016.3
20260508125523 41 0 0.0 2.0 0.01 0.11 0.02 94 1016.4
20260508125023 41 0 0.0 3.0 0.01 0.11 0.02 94 1016.4
20260508124536 41 27 1.0 3.0 0.01 0.11 0.02 94 1016.2
20260508124024 40 184 0.0 2.0 0.01 0.11 0.02 94 1016.1
20260508123523 39 0 0.0 0.0 0.01 0.11 0.02 94 1016.1
20260508123041 39 0 0.0 0.0 0.01 0.11 0.02 94 1015.9
20260508122526 39 0 0.0 0.0 0.01 0.11 0.02 93 1016.0
20260508122029 39 0 0.0 0.0 0.01 0.11 0.02 93 1015.8
20260508121539 39 0 0.0 0.0 0.00 0.10 0.01 94 1015.8
20260508121023 39 0 0.0 0.0 0.00 0.10 0.01 94 1015.7
20260508120525 39 0 0.0 0.0 0.00 0.10 0.01 94 1015.8
20260508120036 39 0 0.0 0.0 0.00 0.10 0.01 94 1015.8
20260508115528 39 0 0.0 0.0 0.00 0.11 0.01 93 1015.8
20260508115025 39 0 0.0 0.0 0.00 0.11 0.01 93 1015.8
20260508114537 39 0 0.0 0.0 0.00 0.11 0.01 93 1015.7
20260508114025 39 0 0.0 0.0 0.00 0.11 0.01 93 1015.7
20260508113523 39 0 0.0 0.0 0.00 0.11 0.01 93 1015.7
20260508113047 39 0 0.0 0.0 0.00 0.11 0.01 93 1015.6
20260508112524 39 0 0.0 0.0 0.00 0.11 0.01 94 1015.7
20260508112026 39 0 0.0 0.0 0.00 0.11 0.01 93 1015.8
20260508111541 39 0 0.0 0.0 0.00 0.11 0.01 93 1015.7
20260508111023 39 0 0.0 0.0 0.00 0.11 0.01 94 1015.7
20260508110525 39 0 0.0 0.0 0.00 0.11 0.01 93 1015.6
20260508110050 38 0 0.0 0.0 0.00 0.11 0.01 93 1015.5
20260508105523 37 0 0.0 0.0 0.00 0.14 0.01 93 1015.6
20260508105023 37 0 0.0 0.0 0.00 0.14 0.01 93 1015.5
20260508104537 38 0 0.0 0.0 0.00 0.14 0.01 92 1015.5
20260508104025 38 0 0.0 0.0 0.00 0.14 0.01 92 1015.5
20260508103526 38 0 0.0 0.0 0.00 0.14 0.01 93 1015.6
20260508103040 39 0 0.0 0.0 0.00 0.14 0.01 93 1015.4
20260508102523 38 0 0.0 0.0 0.00 0.14 0.01 93 1015.6
20260508102022 38 0 0.0 2.0 0.00 0.14 0.01 93 1015.5
20260508101547 38 0 0.0 3.0 0.00 0.14 0.01 93 1015.5
20260508101023 38 184 1.0 4.0 0.00 0.14 0.01 92 1015.5
20260508100526 39 184 2.0 4.0 0.00 0.14 0.01 92 1015.4
20260508100043 40 0 0.0 0.0 0.00 0.14 0.01 93 1015.4
20260508095525 40 0 0.0 0.0 0.00 0.14 0.01 93 1015.3
20260508095022 40 0 0.0 0.0 0.00 0.14 0.01 92 1015.4
20260508094550 40 0 0.0 0.0 0.00 0.14 0.01 92 1015.2
20260508094023 40 0 0.0 0.0 0.00 0.14 0.01 93 1015.2
20260508093526 40 0 0.0 0.0 0.00 0.14 0.01 93 1015.1
20260508093051 40 0 0.0 0.0 0.00 0.14 0.01 93 1015.2
20260508092523 40 0 0.0 0.0 0.00 0.14 0.01 93 1015.3
20260508092023 40 0 0.0 0.0 0.00 0.14 0.01 93 1015.2
20260508091540 40 0 0.0 0.0 0.00 0.14 0.01 92 1015.3
20260508091023 40 0 0.0 0.0 0.00 0.14 0.01 92 1015.3
20260508090523 41 0 0.0 0.0 0.00 0.14 0.01 92 1015.2
20260508090056 41 0 0.0 0.0 0.00 0.14 0.01 92 1015.2
20260508085522 41 0 0.0 0.0 0.00 0.14 0.01 92 1015.2
20260508085027 42 0 0.0 0.0 0.00 0.14 0.01 92 1015.2
20260508084536 42 0 0.0 0.0 0.00 0.14 0.01 92 1015.4
20260508084027 42 0 0.0 0.0 0.00 0.14 0.01 92 1015.2
20260508083527 42 0 0.0 0.0 0.00 0.14 0.01 92 1015.2
20260508083041 43 0 0.0 0.0 0.00 0.14 0.01 92 1015.3
20260508082527 43 0 0.0 0.0 0.00 0.14 0.01 92 1015.3
20260508082026 43 0 0.0 0.0 0.00 0.14 0.01 92 1015.2
20260508081541 43 0 0.0 0.0 0.00 0.14 0.01 92 1015.2
20260508081026 43 0 0.0 0.0 0.00 0.14 0.01 92 1015.3
20260508080527 44 0 0.0 0.0 0.00 0.14 0.01 92 1015.3
20260508080039 44 0 0.0 1.0 0.00 0.14 0.01 92 1015.2
20260508075527 44 0 0.0 1.0 0.00 0.14 0.01 92 1015.3
20260508075029 44 0 0.0 1.0 0.00 0.14 0.01 93 1015.1
20260508074541 44 0 0.0 2.0 0.01 0.14 0.01 92 1015.2
20260508074027 44 0 0.0 2.0 0.01 0.14 0.01 92 1015.4
20260508073526 44 213 0.0 2.0 0.01 0.14 0.01 92 1015.2
20260508073037 44 0 0.0 0.0 0.01 0.14 0.01 92 1015.2
20260508072527 44 0 0.0 0.0 0.01 0.14 0.01 92 1015.3
20260508072027 44 0 0.0 0.0 0.01 0.14 0.01 91 1015.2
20260508071539 45 0 0.0 0.0 0.01 0.14 0.01 91 1015.4
20260508071027 45 0 0.0 0.0 0.01 0.14 0.01 91 1015.3
20260508070527 45 0 0.0 0.0 0.01 0.14 0.01 91 1015.3
20260508070041 45 0 0.0 0.0 0.01 0.14 0.01 91 1015.3
20260508065528 45 0 0.0 0.0 0.01 0.14 0.01 91 1015.4
20260508065026 46 0 0.0 0.0 0.00 0.13 0.00 91 1015.3
20260508064536 46 0 0.0 3.0 0.00 0.13 0.00 91 1015.3
20260508064027 46 0 0.0 3.0 0.00 0.13 0.00 91 1015.2
20260508063531 46 213 1.0 3.0 0.00 0.13 0.00 91 1015.4
20260508063043 46 186 0.0 2.0 0.00 0.13 0.00 91 1015.3
20260508062527 46 0 0.0 0.0 0.00 0.13 0.00 91 1015.2
20260508062026 46 0 0.0 1.0 0.00 0.13 0.00 91 1015.2
20260508061541 46 0 0.0 1.0 0.00 0.13 0.00 91 1015.2
20260508061028 46 0 0.0 2.0 0.00 0.13 0.00 91 1015.4
20260508060526 47 0 0.0 3.0 0.00 0.13 0.00 91 1015.4
20260508060043 47 0 0.0 3.0 0.00 0.13 0.00 91 1015.3